Weather History for Fountain Dale, PA

Change the Weather History Date:

Monday, February 13, 2012

  Actual Average (KHGR) Record (KHGR)
Temperature  
Mean Temperature 35 °F -  
Max Temperature 46 °F 40 °F 53 °F (2011)
Min Temperature 24 °F 25 °F 15 °F (1997)
Degree Days  
Heating Degree Days 30    
Moisture  
Dew Point 15 °F    
Average Humidity 45    
Maximum Humidity 57    
Minimum Humidity 29    
Precipitation  
Precipitation 0.00 in - - ()
Sea Level Pressure  
Sea Level Pressure 30.11 in    
Wind  
Wind Speed 8 mph (WSW)    
Max Wind Speed 14 mph    
Max Gust Speed 29 mph    
Visibility 10 miles    
Events      
Averages and records for this station are not official NWS values.
T = Trace of Precipitation, MM = Missing Value Source: NWS Daily Summary

Daily Weather History Graph

Daily Weather History Graph

Search for Another Location

Airport:

Trip Planner

Search our weather history database for the weather conditions in past years. The results will help you decide how hot, cold, wet, or windy it might be!

Date:

Astronomy

Feb. 13, 2012 Rise Set
Actual Time 7:05 AM EST 5:43 PM EST
Civil Twilight 6:37 AM EST 6:10 PM EST
Nautical Twilight 6:05 AM EST 6:42 PM EST
Astronomical Twilight 5:34 AM EST 7:13 PM EST
Moon No Moon Rise 10:03 AM EST (2/13)
Length of Visible Light 11h 33m
Length of Day
10h 37m
Waning Gibbous, 62% of the Moon is Illuminated
Feb 13
Waning Gibbous
Feb 14
Last Quarter
Feb 21
New
Feb 29
First Quarter
Mar 8
Full

Hourly Weather History & Observations

Time (EST) Temp. Windchill Dew Point Humidity Pressure Visibility Wind Dir Wind Speed Gust Speed Precip Events Conditions
12:53 AM 24.1 °F 14.4 °F 10.0 °F 55% 30.12 in 10.0 mi WSW 9.2 mph - N/A   Clear
1:15 AM - - - N/A% - - North - - N/A   Unknown
1:53 AM 24.1 °F 17.0 °F 10.9 °F 57% 30.10 in 10.0 mi Variable 5.8 mph - N/A   Clear
2:53 AM 25.0 °F 17.1 °F 10.9 °F 55% 30.12 in 10.0 mi SSW 6.9 mph - N/A   Clear
3:53 AM 26.1 °F 16.8 °F 12.0 °F 55% 30.12 in 10.0 mi SW 9.2 mph 17.3 mph N/A   Clear
4:53 AM 26.1 °F 15.0 °F 12.0 °F 55% 30.12 in 10.0 mi SW 12.7 mph 19.6 mph N/A   Clear
5:53 AM 26.1 °F 15.6 °F 12.0 °F 55% 30.13 in 10.0 mi SW 11.5 mph 19.6 mph N/A   Clear
6:53 AM 26.1 °F 15.0 °F 10.9 °F 53% 30.16 in 10.0 mi SW 12.7 mph 21.9 mph N/A   Clear
7:53 AM 26.1 °F 16.2 °F 12.0 °F 55% 30.16 in 10.0 mi SW 10.4 mph 19.6 mph N/A   Clear
8:53 AM 28.0 °F 18.1 °F 12.9 °F 53% 30.17 in 10.0 mi WSW 11.5 mph 20.7 mph N/A   Clear
9:53 AM 30.9 °F 20.7 °F 15.1 °F 52% 30.17 in 10.0 mi WSW 13.8 mph 23.0 mph N/A   Clear
10:53 AM 33.1 °F 23.9 °F 16.0 °F 50% 30.14 in 10.0 mi WNW 12.7 mph 24.2 mph N/A   Clear
11:53 AM 36.0 °F 33.3 °F 17.1 °F 46% 30.12 in 10.0 mi Variable 3.5 mph 28.8 mph N/A   Clear
12:53 PM 39.0 °F 34.0 °F 17.1 °F 41% 30.10 in 10.0 mi Variable 6.9 mph - N/A   Clear
1:53 PM 42.1 °F 36.6 °F 17.1 °F 37% 30.08 in 10.0 mi West 9.2 mph - N/A   Clear
2:53 PM 44.1 °F 39.0 °F 17.1 °F 34% 30.06 in 10.0 mi WNW 9.2 mph - N/A   Clear
3:53 PM 46.9 °F - 16.0 °F 29% 30.06 in 10.0 mi Variable 4.6 mph - N/A   Clear
4:53 PM 44.1 °F 40.8 °F 15.1 °F 31% 30.06 in 10.0 mi WNW 5.8 mph - N/A   Clear
5:53 PM 43.0 °F 40.3 °F 16.0 °F 34% 30.07 in 10.0 mi SSW 4.6 mph - N/A   Clear
6:53 PM 42.1 °F 37.1 °F 16.0 °F 35% 30.09 in 10.0 mi SSW 8.1 mph - N/A   Clear
7:53 PM 41.0 °F 36.4 °F 17.1 °F 38% 30.08 in 10.0 mi WSW 6.9 mph - N/A   Clear
8:53 PM 41.0 °F 37.1 °F 16.0 °F 36% 30.08 in 10.0 mi Variable 5.8 mph - N/A   Clear
9:53 PM 41.0 °F - 16.0 °F 36% 30.08 in 10.0 mi Calm Calm - N/A   Mostly Cloudy
10:53 PM 39.0 °F - 18.0 °F 43% 30.07 in 10.0 mi Calm Calm - N/A   Mostly Cloudy
11:53 PM 39.0 °F 35.7 °F 17.1 °F 41% 30.08 in 10.0 mi SSW 4.6 mph - N/A   Overcast